Westfield, MA

7:42 PM EDT on September 17, 2019 (GMT -0400)
Barnes Municipal

Weather History for KBAF - August, 2019

Change the Weather History Date:

Wednesday, August 21, 2019

  Actual Average Record
Temperature  
Mean Temperature 72 °F -  
Max Temperature 81 °F 80 °F 89 °F (2005)
Min Temperature 63 °F 56 °F 48 °F (2008)
Cooling Degree Days 6    
Growing Degree Days 22 (Base 50)    
Moisture  
Dew Point 67 °F    
Average Humidity 90    
Maximum Humidity 96    
Minimum Humidity 76    
Precipitation  
Precipitation 0.64 in - - ()
Sea Level Pressure  
Sea Level Pressure 29.92 in    
Wind  
Wind Speed 2 mph (SSE)    
Max Wind Speed 13 mph    
Max Gust Speed 20 mph    
Visibility 8 miles    
Events Fog , Rain , Thunderstorm    
Averages and records for this station are not official NWS values.
T = Trace of Precipitation, MM = Missing Value Source: NWS Daily Summary

Daily Weather History Graph

Daily Weather History Graph

Search for Another Location

Airport or City:

Astronomy

Aug. 21, 2019 Rise Set
Actual Time 6:04 AM EDT 7:42 PM EDT
Civil Twilight 5:34 AM EDT 8:12 PM EDT
Nautical Twilight 4:58 AM EDT 8:48 PM EDT
Astronomical Twilight 4:20 AM EDT 9:26 PM EDT
Moon 10:52 PM EDT (8/21) 11:43 AM EDT (8/21)
Length of Visible Light 14h 37m
Length of Day
13h 38m
Waning Gibbous, 69% of the Moon is Illuminated
Aug 21
Waning Gibbous
Aug 23
Last Quarter
Aug 30
New
Sep 5
First Quarter
Sep 14
Full

Hourly Weather History & Observations

Time (EDT) Temp. Heat Index Dew Point Humidity Pressure Visibility Wind Dir Wind Speed Gust Speed Precip Events Conditions
12:53 AM 64.9 °F - 62.1 °F 90% 30.03 in 10.0 mi Calm Calm - N/A   Clear
1:53 AM 64.9 °F - 62.1 °F 90% 30.03 in 10.0 mi Calm Calm - N/A   Clear
2:53 AM 63.0 °F - 61.0 °F 93% 30.01 in 10.0 mi Calm Calm - N/A   Scattered Clouds
3:53 AM 63.0 °F - 61.0 °F 93% 30.01 in 10.0 mi Calm Calm - N/A   Scattered Clouds
4:53 AM 63.0 °F - 61.0 °F 93% 30.00 in 10.0 mi North 3.5 mph - N/A   Partly Cloudy
5:53 AM 64.9 °F - 62.1 °F 90% 30.01 in 10.0 mi Calm Calm - N/A   Mostly Cloudy
6:14 AM 64.9 °F - 62.1 °F 90% 30.01 in 5.0 mi Calm Calm - 0.03 in Rain , Thunderstorm Heavy Rain
6:36 AM 64.9 °F - 63.0 °F 93% 30.02 in 5.0 mi Calm Calm - 0.07 in Rain , Thunderstorm Thunderstorms and Rain
6:48 AM 64.4 °F - 62.6 °F 94% 30.00 in 2.0 mi ENE 8.1 mph - 0.24 in Rain , Thunderstorm Heavy Thunderstorms and Rain
6:53 AM 64.9 °F - 63.0 °F 93% 29.99 in 4.0 mi ENE 8.1 mph - 0.24 in Rain , Thunderstorm Light Thunderstorms and Rain
7:09 AM 66.0 °F - 64.9 °F 96% 29.98 in 10.0 mi ENE 4.6 mph - 0.00 in Thunderstorm Overcast
7:26 AM 68.0 °F - 66.0 °F 93% 29.99 in 10.0 mi SW 6.9 mph - 0.00 in   Mostly Cloudy
7:53 AM 68.0 °F - 66.0 °F 93% 29.99 in 10.0 mi Calm Calm - 0.00 in   Partly Cloudy
8:25 AM 69.1 °F - 66.0 °F 90% 30.00 in 10.0 mi WSW 4.6 mph - N/A   Scattered Clouds
8:53 AM 69.1 °F - 66.0 °F 90% 29.99 in 10.0 mi Calm Calm - N/A   Mostly Cloudy
9:14 AM 70.0 °F - 66.0 °F 87% 29.99 in 10.0 mi Calm Calm - N/A   Mostly Cloudy
9:53 AM 72.0 °F - 68.0 °F 87% 29.97 in 10.0 mi Calm Calm - N/A   Overcast
10:01 AM 73.0 °F - 68.0 °F 84% 29.97 in 10.0 mi Calm Calm - N/A   Overcast
10:05 AM 73.0 °F - 68.0 °F 84% 29.97 in 10.0 mi Calm Calm - N/A   Overcast
10:53 AM 75.0 °F - 70.0 °F 84% 29.95 in 10.0 mi Calm Calm - N/A   Overcast
10:55 AM 75.0 °F - 70.0 °F 84% 29.95 in 10.0 mi Calm Calm - N/A   Overcast
11:02 AM 75.0 °F - 70.0 °F 84% 29.96 in 10.0 mi Calm Calm - N/A   Overcast
11:53 AM 78.1 °F - 70.0 °F 76% 29.93 in 10.0 mi NNW 4.6 mph - N/A   Overcast
12:37 PM 79.0 °F - 71.1 °F 77% 29.92 in 10.0 mi East 3.5 mph - N/A   Mostly Cloudy
12:53 PM 80.1 °F 83.8 °F 72.0 °F 76% 29.91 in 10.0 mi SSE 4.6 mph - N/A   Mostly Cloudy
1:53 PM 75.0 °F - 73.0 °F 94% 29.89 in 3.0 mi North 3.5 mph - 0.07 in Rain Heavy Rain
2:44 PM 77.0 °F - 73.0 °F 88% 29.88 in 10.0 mi South 9.2 mph - 0.04 in   Overcast
2:53 PM 77.0 °F - 73.0 °F 88% 29.87 in 10.0 mi South 9.2 mph - 0.04 in Rain Light Rain
3:53 PM 77.0 °F - 73.0 °F 88% 29.86 in 10.0 mi South 5.8 mph - 0.00 in   Scattered Clouds
4:53 PM 77.0 °F - 72.0 °F 84% 29.86 in 10.0 mi South 5.8 mph - N/A   Mostly Cloudy
5:05 PM 75.9 °F - 72.0 °F 87% 29.86 in 10.0 mi SE 4.6 mph - N/A   Mostly Cloudy
5:53 PM 75.9 °F - 71.1 °F 85% 29.83 in 10.0 mi SSE 8.1 mph - N/A   Mostly Cloudy
6:00 PM 75.9 °F - 71.1 °F 85% 29.84 in 10.0 mi SSE 6.9 mph - N/A   Scattered Clouds
6:53 PM 73.9 °F - 71.1 °F 91% 29.83 in 10.0 mi South 5.8 mph - 0.00 in   Partly Cloudy
7:31 PM 75.0 °F - 71.1 °F 87% 29.86 in 0.5 mi West 12.7 mph 19.6 mph 0.16 in Fog , Rain , Thunderstorm Thunderstorms and Rain
7:53 PM 71.1 °F - 68.0 °F 90% 29.84 in 4.0 mi SSE 5.8 mph - 0.29 in Rain , Thunderstorm Thunderstorms and Rain
8:08 PM 70.0 °F - 68.0 °F 93% 29.85 in 10.0 mi South 6.9 mph - 0.00 in Rain , Thunderstorm Light Rain
8:25 PM 70.0 °F - 68.0 °F 93% 29.85 in 10.0 mi SSE 8.1 mph - 0.00 in   Scattered Clouds
8:53 PM 70.0 °F - 66.9 °F 90% 29.85 in 10.0 mi South 6.9 mph - 0.00 in   Clear
9:53 PM 68.0 °F - 66.0 °F 93% 29.87 in 10.0 mi South 5.8 mph - N/A   Clear
10:50 PM 66.2 °F - 64.4 °F 94% 29.87 in 1.8 mi Calm Calm - N/A   Clear
10:53 PM 66.0 °F - 64.9 °F 96% 29.87 in 1.2 mi South 3.5 mph - N/A   Clear
11:06 PM 66.9 °F - 64.9 °F 93% 29.87 in 1.2 mi Calm Calm - N/A   Partly Cloudy
11:12 PM 66.9 °F - 64.9 °F 93% 29.87 in 3.0 mi Calm Calm - N/A   Partly Cloudy
11:28 PM 66.9 °F - 64.9 °F 93% 29.87 in 2.0 mi Calm Calm - N/A   Clear
11:36 PM 66.0 °F - 64.9 °F 96% 29.87 in 1.2 mi Calm Calm - N/A   Partly Cloudy
11:39 PM 66.0 °F - 64.0 °F 93% 29.87 in 0.8 mi Calm Calm - N/A   Mist
11:53 PM 66.0 °F - 64.9 °F 96% 29.87 in 0.8 mi South 3.5 mph - N/A   Mist
11:55 PM 66.0 °F - 64.9 °F 96% 29.87 in 1.2 mi South 4.6 mph - N/A   Partly Cloudy